SCP
0 0 0 0 0 0 0 0 0 0 0 0 0 0 0 0 0 0 0 0 0 0 0 0 0 0 0 0 1 2 2 2 1 0 0 1 3 1 1 1 1 1 1
0 0 0 0 0 0 0 0 0 0 0 0 0 0 0 0 0 0 0 0 0 -0 -0 0 0 0 0 1 1 1 1 1 1 1 0 1 1 2 1 2 1 1 1
0 0 0 0 0 0 0 0 0 0 0 0 0 0 0 0 0 0 0 0 0 0 -0 -0 -0 0 0 0 1 1 0 1 1 1 0 0 0 0 1 1 2 2 1
0 0 0 0 0 0 0 0 0 0 0 0 0 0 0 0 0 0 0 0 0 0 -0 -0 -0 0 0 0 0 1 1 1 1 1 1 0 0 1 1 1 2 1 1
0 0 0 0 0 0 0 0 0 0 0 0 0 0 0 0 0 1 0 0 0 0 -0 -0 -0 0 0 0 0 0 0 1 1 1 0 0 0 1 1 1 1 1 1
0 0 0 0 0 0 0 0 0 0 0 0 0 0 0 0 0 0 0 0 0 0 -0 -0 -0 0 0 0 0 0 0 0 1 1 0 0 1 1 1 1 1 1 1
1 0 0 0 0 0 0 0 0 0 0 0 0 0 0 0 0 0 0 0 0 0 -0 -0 -0 -0 0 0 0 0 0 0 0 1 1 1 1 1 1 1 1 2 2
1 0 0 0 0 0 0 0 0 0 0 0 0 0 0 0 0 0 0 0 0 0 0 0 -0 -0 0 0 0 0 0 0 0 0 1 0 1 1 1 1 2 2 3
0 0 0 0 0 0 0 0 0 0 0 0 0 0 0 0 0 0 0 0 0 0 0 0 0 -0 -0 0 0 0 0 0 0 0 0 0 0 0 1 1 1 2 1
0 0 0 0 0 0 1 1 0 0 0 0 0 0 0 0 0 0 0 0 0 0 0 0 0 -0 -0 0 0 0 0 0 0 0 0 0 0 0 0 1 1 2 1
0 0 0 1 1 1 1 1 1 1 0 0 0 0 0 0 0 0 0 0 0 0 0 0 0 -0 -0 -0 0 0 0 0 0 0 0 1 0 0 1 0 1 1 1
1 1 2 2 1 0 2 1 1 1 1 0 0 0 0 0 0 0 0 0 0 0 0 0 0 -0 0 -0 0 -0 -0 0 0 0 0 0 0 1 0 1 1 1 1
4 2 2 1 1 1 1 1 1 1 0 0 0 0 0 0 0 0 0 0 0 0 0 0 0 0 0 0 -0 0 -0 0 0 0 0 0 0 0 0 0 1 1 1
2 2 2 1 1 2 1 1 1 0 0 0 0 0 0 0 0 0 0 0 0 0 0 0 0 -0 0 0 0 0 -0 0 0 0 0 0 0 0 0 0 1 1 1
1 1 1 0 1 1 2 1 1 0 0 0 0 0 0 0 0 0 0 0 0 0 0 0 0 0 0 0 0 0 -0 -0 0 0 0 0 0 0 0 0 0 1 0
1 0 0 0 0 0 1 0 0 0 0 0 0 0 0 0 0 0 0 -0 0 0 0 0 0 0 -0 0 0 0 0 0 0 -0 -0 0 0 0 0 0 0 0 0
1 1 0 0 0 1 1 0 0 0 0 0 0 0 0 0 0 0 0 -0 0 0 0 0 0 0 0 -0 -0 0 0 0 -0 0 0 0 -0 0 0 0 0 0 0
0 0 0 0 0 1 0 0 0 0 0 0 0 0 0 0 0 0 0 -0 0 0 0 0 0 0 0 0 0 0 0 0 -0 -0 -0 -0 0 -0 -0 -0 -0 0 0
0 0 1 0 0 0 0 0 0 0 0 0 0 0 0 0 -0 0 0 0 0 0 0 0 0 0 0 0 0 0 0 0 0 -0 -0 -0 -0 0 -0 -0 -0 -0 -0
0 0 0 0 0 0 0 0 0 0 0 0 0 0 0 0 0 0 0 0 0 0 0 0 0 0 0 0 0 0 0 0 -0 -0 0 0 0 0 0 0 0 -0 -0
0 0 0 0 0 -0 0 0 0 0 0 0 0 0 0 0 0 0 0 0 0 0 0 0 0 0 0 0 0 0 0 0 0 0 0 0 0 0 0 0 0 0 0
0 0 0 0 0 0 0 0 0 0 0 0 0 0 0 0 0 0 0 0 0 0 0 0 0 0 0 0 0 0 0 0 0 0 0 0 0 0 0 0 0 0 0
0 0 0 0 0 0 0 0 0 0 0 0 0 0 0 0 0 0 0 0 0 0 0 0 0 0 0 0 0 0 0 0 0 0 0 0 0 0 0 0 0 0 0
0 0 0 0 0 0 0 0 0 0 0 0 0 0 0 0 0 0 0 0 0 0 0 0 0 0 0 0 0 0 0 0 0 0 0 0 0 0 0 0 0 0 0
0 0 0 0 0 0 0 0 0 0 0 0 0 0 0 0 0 0 0 0 0 0 0 0 0 0 0 0 0 0 0 0 0 0 0 0 0 0 0 0 0 0 0
0 0 0 0 0 0 0 0 0 0 0 0 0 0 0 0 0 0 0 0 0 0 0 0 0 0 0 0 0 0 0 0 0 0 0 0 0 0 0 0 0 0 0
Wind_Speed_500mb
23 20 18 12 13 14 15 16 18 19 21 23 28 29 26 26 25 27 26 29 36 43 49 55 60 64 67 66 70 73 74 73 68 64 60 57 53 49 44 39 41 44 41
18 18 16 14 14 15 17 19 21 24 27 31 35 31 30 29 29 28 32 36 45 54 53 59 68 67 71 74 70 74 69 74 69 66 61 57 62 56 50 52 42 41 42
20 18 17 16 15 16 18 20 22 26 31 33 32 30 31 27 29 30 33 36 42 45 61 66 78 75 70 73 75 72 71 75 69 70 65 59 62 53 57 59 52 49 42
20 20 20 18 17 19 21 24 26 27 31 31 31 30 29 28 28 28 26 32 47 40 64 76 82 56 60 64 67 72 72 74 70 71 71 65 64 57 52 51 54 53 49
25 22 22 22 22 24 26 27 29 30 29 28 28 28 27 30 30 27 30 30 45 46 53 73 73 53 38 52 55 64 70 79 80 72 72 68 67 57 61 55 57 50 53
25 23 22 23 24 25 27 29 30 29 28 27 27 27 28 27 32 34 35 25 38 46 49 54 70 71 52 34 55 75 75 79 84 77 78 75 74 66 60 56 52 58 58
25 22 22 22 23 24 25 27 27 28 31 28 26 27 25 25 34 38 37 27 32 42 46 51 61 68 79 63 60 57 75 77 89 86 88 81 69 68 67 65 64 56 63
26 24 23 24 25 25 24 25 25 28 28 26 26 23 23 28 37 37 40 40 33 35 44 53 63 70 67 86 73 69 64 84 83 95 95 84 79 65 64 67 64 68 59
28 27 25 25 26 27 27 26 26 26 25 27 25 23 27 30 38 41 40 34 37 43 44 48 55 66 81 80 85 79 64 75 91 85 90 94 80 65 62 54 62 62 66
32 27 25 24 27 28 29 27 27 24 22 22 24 26 29 33 33 33 35 32 39 40 46 49 52 56 91 83 94 74 81 59 76 92 81 89 88 81 74 66 58 58 52
30 27 25 27 30 32 30 29 27 26 27 26 27 27 26 26 29 28 28 29 35 41 42 45 51 47 68 83 84 83 64 36 59 80 87 79 79 85 84 75 70 56 54
30 29 26 26 31 37 32 26 26 30 27 26 32 30 27 23 29 31 30 29 28 37 48 42 42 47 49 68 84 76 80 14 30 61 79 74 76 83 84 82 69 72 63
39 35 33 32 40 33 34 35 27 29 27 31 33 29 33 32 34 33 35 32 29 33 41 36 37 37 42 53 69 68 78 67 29 25 39 65 67 67 68 73 72 67 68
29 24 33 38 27 27 28 26 26 28 30 30 27 30 31 31 31 34 41 32 30 31 35 32 31 31 37 38 50 63 67 77 63 63 51 19 44 54 59 63 57 57 62
27 29 19 21 25 24 22 29 24 32 35 24 21 20 25 28 35 38 34 30 26 28 31 24 29 30 38 26 30 39 52 52 68 79 75 61 61 29 53 61 47 55 56
19 20 22 25 26 25 21 18 21 21 22 22 22 22 25 32 32 26 22 21 22 23 14 21 22 25 29 27 16 22 29 44 46 46 68 64 66 66 64 39 39 45 43
10 12 16 19 19 21 17 24 26 23 22 23 23 22 20 22 24 22 19 19 19 13 11 17 20 25 29 25 16 14 18 22 35 49 39 42 56 64 63 59 52 50 41
12 18 14 14 15 11 8 8 18 14 11 11 18 14 17 20 22 21 19 13 11 15 16 17 18 21 25 29 26 26 15 12 15 23 27 37 39 31 27 31 42 51 40
10 11 9 9 16 14 9 8 2 6 4 4 7 18 15 18 22 16 7 12 14 18 21 22 21 22 19 19 23 28 27 31 28 22 22 22 18 17 18 19 21 24 29
1 4 5 13 14 13 15 13 8 12 16 9 7 7 8 8 6 13 12 14 16 19 21 24 23 23 24 26 29 28 27 28 28 30 27 26 27 29 17 23 24 11 8
12 26 16 16 7 1 5 6 6 9 8 5 4 4 4 7 8 12 15 16 14 14 18 19 20 21 24 26 26 25 27 27 28 29 28 26 25 24 28 23 18 23 9
13 14 10 7 3 2 3 5 1 4 5 4 3 6 8 6 3 4 7 9 9 12 17 16 18 20 20 20 23 24 22 20 20 21 26 27 25 23 20 20 21 11 6
10 8 6 4 4 6 2 3 5 6 6 5 2 2 5 2 3 1 4 9 13 14 13 14 16 18 20 21 24 24 23 21 20 21 22 21 21 21 22 19 14 17 18
7 5 5 6 5 6 6 6 7 11 8 5 4 4 2 2 3 13 7 9 9 10 12 14 16 16 16 16 17 19 20 20 20 19 22 22 22 21 18 17 18 16 13
5 6 7 7 6 8 9 9 9 9 9 9 8 8 6 4 4 4 5 7 9 10 12 12 12 14 15 16 17 18 20 22 24 24 22 23 23 24 24 22 21 18 16
7 8 7 6 7 9 11 12 13 13 11 10 9 8 7 6 5 5 6 7 7 7 8 8 9 10 10 12 12 13 14 17 20 21 21 19 20 21 20 22 24 21 23
Wind_Direction_500mb
281 285 294 269 272 285 296 296 294 291 301 313 315 314 300 296 301 312 316 324 324 319 313 303 295 283 271 261 259 255 245 242 243 249 246 245 243 232 238 242 240 233 237
262 274 276 263 273 281 289 290 289 286 290 304 309 308 301 292 289 297 307 314 322 322 320 310 297 288 274 262 256 250 252 246 239 243 240 241 240 242 241 237 235 235 233
262 268 264 258 263 280 288 294 296 298 300 301 299 292 301 293 292 286 299 312 325 329 338 329 327 290 273 265 258 253 246 246 243 238 240 241 240 240 238 238 230 231 233
257 265 261 259 271 280 292 300 305 303 304 302 301 292 293 293 298 288 293 314 328 332 339 353 335 311 275 267 262 255 249 240 243 239 238 238 238 236 235 233 234 232 230
250 261 266 264 280 283 291 295 298 298 300 299 303 301 293 292 297 282 299 315 335 336 336 347 343 335 282 258 263 262 259 249 239 235 233 234 235 231 229 229 228 232 229
251 260 266 268 273 277 283 288 298 299 299 298 302 302 298 299 284 301 301 312 346 341 340 341 349 358 354 316 272 259 258 253 241 234 233 232 231 230 231 226 226 228 225
251 256 262 264 268 273 287 291 295 305 303 301 300 299 299 302 300 302 297 296 328 348 355 342 339 343 358 351 333 298 256 248 242 240 238 231 231 231 226 230 222 228 227
245 250 257 263 271 272 282 286 291 301 298 295 297 299 300 311 309 311 302 293 304 332 336 341 347 354 347 347 339 322 286 248 242 235 236 240 233 230 231 228 227 226 225
240 249 256 263 273 275 283 283 289 294 297 297 293 295 302 306 305 308 304 281 292 320 317 328 338 350 350 346 340 331 302 257 236 237 235 238 233 233 230 229 224 221 226
237 251 257 265 269 277 280 284 291 288 299 309 295 294 299 307 305 309 314 299 303 318 325 329 336 331 341 342 346 346 328 273 233 230 233 232 233 230 229 228 219 217 223
237 246 253 262 269 275 279 278 278 280 283 294 301 301 310 306 320 320 324 311 315 316 325 329 340 335 340 338 346 354 348 281 228 225 228 232 228 229 229 226 225 220 221
234 239 254 293 289 285 276 266 270 276 283 293 301 305 308 305 308 317 327 318 308 319 329 331 335 340 340 338 354 8 14 355 217 215 222 223 228 227 227 226 222 226 222
231 252 256 297 281 266 275 279 276 276 286 297 292 301 310 308 310 304 319 320 305 315 325 326 321 332 343 347 357 13 23 34 90 163 200 224 231 229 224 226 226 224 226
242 268 271 277 263 264 270 276 270 280 293 293 293 300 304 304 307 299 313 316 305 311 317 323 317 338 347 349 6 10 29 37 49 52 63 110 221 219 206 211 217 218 221
259 280 266 271 265 258 269 260 267 277 278 272 286 301 299 301 301 311 316 321 320 323 324 326 309 332 352 347 11 30 28 26 48 50 46 51 64 123 189 206 212 219 219
280 287 279 272 265 267 262 259 274 273 268 280 294 299 300 307 316 324 329 330 328 330 329 316 329 348 357 359 359 33 41 27 21 45 46 44 47 56 56 90 175 185 178
270 270 277 281 266 259 246 258 272 263 277 285 287 296 300 309 324 334 337 330 331 359 16 5 6 4 11 14 8 1 22 30 47 32 43 45 49 49 50 56 64 72 82
286 292 283 276 262 253 231 224 227 270 271 293 295 296 298 306 316 323 329 7 356 19 32 27 21 25 22 28 33 44 32 8 57 61 51 37 23 52 43 49 60 62 63
283 263 231 197 185 186 150 130 154 224 321 304 307 331 314 311 322 329 346 54 58 52 48 47 37 34 34 45 52 41 53 49 46 50 43 69 48 22 53 35 51 57 60
216 227 189 131 114 100 96 61 8 314 295 291 295 319 352 1 12 33 55 69 70 73 64 56 52 49 51 51 45 43 42 47 51 52 60 61 62 52 51 58 53 84 56
115 126 131 142 122 249 276 279 275 205 220 272 292 328 58 40 44 58 69 66 68 64 62 49 54 48 41 41 40 44 40 39 39 37 35 38 51 62 69 42 82 81 77
131 133 142 155 175 181 295 307 195 140 179 253 353 24 23 43 20 74 65 60 45 32 27 21 16 16 13 20 23 19 19 25 35 37 26 22 24 29 42 62 42 38 123
149 153 167 194 225 271 329 214 202 177 175 194 167 79 65 42 46 328 17 30 25 26 19 12 10 9 10 12 5 4 9 19 29 30 24 17 11 20 18 22 47 52 32
153 178 226 245 242 236 230 206 207 176 160 152 151 123 136 171 64 341 358 39 39 28 29 29 13 12 12 13 11 11 19 22 31 37 28 22 20 22 16 14 17 9 6
211 256 267 265 258 221 204 193 190 177 175 179 184 187 189 146 110 92 72 58 51 50 38 41 43 27 26 27 30 31 32 33 39 35 38 34 30 36 30 25 23 8 352
259 274 267 247 219 200 191 189 190 189 192 192 190 178 160 141 123 96 73 60 53 30 50 43 27 32 25 22 25 24 21 21 23 25 37 27 31 28 37 28 27 24 20
Wind_Speed_850mb
23 20 18 12 13 14 15 16 18 19 21 23 28 29 26 26 25 27 26 29 36 43 49 55 60 64 67 66 70 73 74 73 68 64 60 57 53 49 44 39 41 44 41
18 18 16 14 14 15 17 19 21 24 27 31 35 31 30 29 29 28 32 36 45 54 53 59 68 67 71 74 70 74 69 74 69 66 61 57 62 56 50 52 42 41 42
20 18 17 16 15 16 18 20 22 26 31 33 32 30 31 27 29 30 33 36 42 45 61 66 78 75 70 73 75 72 71 75 69 70 65 59 62 53 57 59 52 49 42
20 20 20 18 17 19 21 24 26 27 31 31 31 30 29 28 28 28 26 32 47 40 64 76 82 56 60 64 67 72 72 74 70 71 71 65 64 57 52 51 54 53 49
25 22 22 22 22 24 26 27 29 30 29 28 28 28 27 30 30 27 30 30 45 46 53 73 73 53 38 52 55 64 70 79 80 72 72 68 67 57 61 55 57 50 53
25 23 22 23 24 25 27 29 30 29 28 27 27 27 28 27 32 34 35 25 38 46 49 54 70 71 52 34 55 75 75 79 84 77 78 75 74 66 60 56 52 58 58
25 22 22 22 23 24 25 27 27 28 31 28 26 27 25 25 34 38 37 27 32 42 46 51 61 68 79 63 60 57 75 77 89 86 88 81 69 68 67 65 64 56 63
26 24 23 24 25 25 24 25 25 28 28 26 26 23 23 28 37 37 40 40 33 35 44 53 63 70 67 86 73 69 64 84 83 95 95 84 79 65 64 67 64 68 59
28 27 25 25 26 27 27 26 26 26 25 27 25 23 27 30 38 41 40 34 37 43 44 48 55 66 81 80 85 79 64 75 91 85 90 94 80 65 62 54 62 62 66
32 27 25 24 27 28 29 27 27 24 22 22 24 26 29 33 33 33 35 32 39 40 46 49 52 56 91 83 94 74 81 59 76 92 81 89 88 81 74 66 58 58 52
30 27 25 27 30 32 30 29 27 26 27 26 27 27 26 26 29 28 28 29 35 41 42 45 51 47 68 83 84 83 64 36 59 80 87 79 79 85 84 75 70 56 54
30 29 26 26 31 37 32 26 26 30 27 26 32 30 27 23 29 31 30 29 28 37 48 42 42 47 49 68 84 76 80 14 30 61 79 74 76 83 84 82 69 72 63
39 35 33 32 40 33 34 35 27 29 27 31 33 29 33 32 34 33 35 32 29 33 41 36 37 37 42 53 69 68 78 67 29 25 39 65 67 67 68 73 72 67 68
29 24 33 38 27 27 28 26 26 28 30 30 27 30 31 31 31 34 41 32 30 31 35 32 31 31 37 38 50 63 67 77 63 63 51 19 44 54 59 63 57 57 62
27 29 19 21 25 24 22 29 24 32 35 24 21 20 25 28 35 38 34 30 26 28 31 24 29 30 38 26 30 39 52 52 68 79 75 61 61 29 53 61 47 55 56
19 20 22 25 26 25 21 18 21 21 22 22 22 22 25 32 32 26 22 21 22 23 14 21 22 25 29 27 16 22 29 44 46 46 68 64 66 66 64 39 39 45 43
10 12 16 19 19 21 17 24 26 23 22 23 23 22 20 22 24 22 19 19 19 13 11 17 20 25 29 25 16 14 18 22 35 49 39 42 56 64 63 59 52 50 41
12 18 14 14 15 11 8 8 18 14 11 11 18 14 17 20 22 21 19 13 11 15 16 17 18 21 25 29 26 26 15 12 15 23 27 37 39 31 27 31 42 51 40
10 11 9 9 16 14 9 8 2 6 4 4 7 18 15 18 22 16 7 12 14 18 21 22 21 22 19 19 23 28 27 31 28 22 22 22 18 17 18 19 21 24 29
1 4 5 13 14 13 15 13 8 12 16 9 7 7 8 8 6 13 12 14 16 19 21 24 23 23 24 26 29 28 27 28 28 30 27 26 27 29 17 23 24 11 8
12 26 16 16 7 1 5 6 6 9 8 5 4 4 4 7 8 12 15 16 14 14 18 19 20 21 24 26 26 25 27 27 28 29 28 26 25 24 28 23 18 23 9
13 14 10 7 3 2 3 5 1 4 5 4 3 6 8 6 3 4 7 9 9 12 17 16 18 20 20 20 23 24 22 20 20 21 26 27 25 23 20 20 21 11 6
10 8 6 4 4 6 2 3 5 6 6 5 2 2 5 2 3 1 4 9 13 14 13 14 16 18 20 21 24 24 23 21 20 21 22 21 21 21 22 19 14 17 18
7 5 5 6 5 6 6 6 7 11 8 5 4 4 2 2 3 13 7 9 9 10 12 14 16 16 16 16 17 19 20 20 20 19 22 22 22 21 18 17 18 16 13
5 6 7 7 6 8 9 9 9 9 9 9 8 8 6 4 4 4 5 7 9 10 12 12 12 14 15 16 17 18 20 22 24 24 22 23 23 24 24 22 21 18 16
7 8 7 6 7 9 11 12 13 13 11 10 9 8 7 6 5 5 6 7 7 7 8 8 9 10 10 12 12 13 14 17 20 21 21 19 20 21 20 22 24 21 23
Wind_Direction_850mb
281 285 294 269 272 285 296 296 294 291 301 313 315 314 300 296 301 312 316 324 324 319 313 303 295 283 271 261 259 255 245 242 243 249 246 245 243 232 238 242 240 233 237
262 274 276 263 273 281 289 290 289 286 290 304 309 308 301 292 289 297 307 314 322 322 320 310 297 288 274 262 256 250 252 246 239 243 240 241 240 242 241 237 235 235 233
262 268 264 258 263 280 288 294 296 298 300 301 299 292 301 293 292 286 299 312 325 329 338 329 327 290 273 265 258 253 246 246 243 238 240 241 240 240 238 238 230 231 233
257 265 261 259 271 280 292 300 305 303 304 302 301 292 293 293 298 288 293 314 328 332 339 353 335 311 275 267 262 255 249 240 243 239 238 238 238 236 235 233 234 232 230
250 261 266 264 280 283 291 295 298 298 300 299 303 301 293 292 297 282 299 315 335 336 336 347 343 335 282 258 263 262 259 249 239 235 233 234 235 231 229 229 228 232 229
251 260 266 268 273 277 283 288 298 299 299 298 302 302 298 299 284 301 301 312 346 341 340 341 349 358 354 316 272 259 258 253 241 234 233 232 231 230 231 226 226 228 225
251 256 262 264 268 273 287 291 295 305 303 301 300 299 299 302 300 302 297 296 328 348 355 342 339 343 358 351 333 298 256 248 242 240 238 231 231 231 226 230 222 228 227
245 250 257 263 271 272 282 286 291 301 298 295 297 299 300 311 309 311 302 293 304 332 336 341 347 354 347 347 339 322 286 248 242 235 236 240 233 230 231 228 227 226 225
240 249 256 263 273 275 283 283 289 294 297 297 293 295 302 306 305 308 304 281 292 320 317 328 338 350 350 346 340 331 302 257 236 237 235 238 233 233 230 229 224 221 226
237 251 257 265 269 277 280 284 291 288 299 309 295 294 299 307 305 309 314 299 303 318 325 329 336 331 341 342 346 346 328 273 233 230 233 232 233 230 229 228 219 217 223
237 246 253 262 269 275 279 278 278 280 283 294 301 301 310 306 320 320 324 311 315 316 325 329 340 335 340 338 346 354 348 281 228 225 228 232 228 229 229 226 225 220 221
234 239 254 293 289 285 276 266 270 276 283 293 301 305 308 305 308 317 327 318 308 319 329 331 335 340 340 338 354 8 14 355 217 215 222 223 228 227 227 226 222 226 222
231 252 256 297 281 266 275 279 276 276 286 297 292 301 310 308 310 304 319 320 305 315 325 326 321 332 343 347 357 13 23 34 90 163 200 224 231 229 224 226 226 224 226
242 268 271 277 263 264 270 276 270 280 293 293 293 300 304 304 307 299 313 316 305 311 317 323 317 338 347 349 6 10 29 37 49 52 63 110 221 219 206 211 217 218 221
259 280 266 271 265 258 269 260 267 277 278 272 286 301 299 301 301 311 316 321 320 323 324 326 309 332 352 347 11 30 28 26 48 50 46 51 64 123 189 206 212 219 219
280 287 279 272 265 267 262 259 274 273 268 280 294 299 300 307 316 324 329 330 328 330 329 316 329 348 357 359 359 33 41 27 21 45 46 44 47 56 56 90 175 185 178
270 270 277 281 266 259 246 258 272 263 277 285 287 296 300 309 324 334 337 330 331 359 16 5 6 4 11 14 8 1 22 30 47 32 43 45 49 49 50 56 64 72 82
286 292 283 276 262 253 231 224 227 270 271 293 295 296 298 306 316 323 329 7 356 19 32 27 21 25 22 28 33 44 32 8 57 61 51 37 23 52 43 49 60 62 63
283 263 231 197 185 186 150 130 154 224 321 304 307 331 314 311 322 329 346 54 58 52 48 47 37 34 34 45 52 41 53 49 46 50 43 69 48 22 53 35 51 57 60
216 227 189 131 114 100 96 61 8 314 295 291 295 319 352 1 12 33 55 69 70 73 64 56 52 49 51 51 45 43 42 47 51 52 60 61 62 52 51 58 53 84 56
115 126 131 142 122 249 276 279 275 205 220 272 292 328 58 40 44 58 69 66 68 64 62 49 54 48 41 41 40 44 40 39 39 37 35 38 51 62 69 42 82 81 77
131 133 142 155 175 181 295 307 195 140 179 253 353 24 23 43 20 74 65 60 45 32 27 21 16 16 13 20 23 19 19 25 35 37 26 22 24 29 42 62 42 38 123
149 153 167 194 225 271 329 214 202 177 175 194 167 79 65 42 46 328 17 30 25 26 19 12 10 9 10 12 5 4 9 19 29 30 24 17 11 20 18 22 47 52 32
153 178 226 245 242 236 230 206 207 176 160 152 151 123 136 171 64 341 358 39 39 28 29 29 13 12 12 13 11 11 19 22 31 37 28 22 20 22 16 14 17 9 6
211 256 267 265 258 221 204 193 190 177 175 179 184 187 189 146 110 92 72 58 51 50 38 41 43 27 26 27 30 31 32 33 39 35 38 34 30 36 30 25 23 8 352
259 274 267 247 219 200 191 189 190 189 192 192 190 178 160 141 123 96 73 60 53 30 50 43 27 32 25 22 25 24 21 21 23 25 37 27 31 28 37 28 27 24 20